This demonstration page uses our WeatherBlox Daily Observations layout. Learn more.

Left ArrowRight Arrow

47.50024, -111.30081

Hourly Observations for November 27, 2015

Temp ( °F °C ) Dew Point ( °F °C ) Humidity (%) Winds ( mph kmh ) Pressure ( in mb ) Visibility ( mi km ) Precip ( " mm )
12:53 am 00:53 Clear 12 -11.1 3 -16.1 67 67 SSW 14 22 30.60 1036 10 16 0.00 0.00
1:53 am 01:53 Clear 13 -10.6 4 -15.6 67 67 SSW 15 24 30.59 1036 10 16 0.00 0.00
2:53 am 02:53 Clear 10 -12.2 2 -16.7 69 69 SSW 13 20 30.59 1036 10 16 0.00 0.00
3:53 am 03:53 Clear 15 -9.4 4 -15.6 61 61 SSW 18 30 30.57 1035 10 16 0.00 0.00
4:53 am 04:53 Clear 15 -9.4 4 -15.6 61 61 SSW 17 28 30.57 1035 10 16 0.00 0.00
5:53 am 05:53 Clear 15 -9.4 4 -15.6 61 61 SSW 17 28 30.58 1036 10 16 0.00 0.00
6:53 am 06:53 Clear 13 -10.6 3 -16.1 64 64 SSW 17 28 30.58 1036 10 16 0.00 0.00
7:53 am 07:53 Sunny 14 -10 3 -16.1 61 61 SSW 18 30 30.57 1035 10 16 0.00 0.00
8:53 am 08:53 Sunny 10 -12.2 1 -17.2 67 67 SW 10 17 30.58 1036 10 16 0.00 0.00
9:53 am 09:53 Sunny 14 -10 4 -15.6 64 64 SW 9 15 30.58 1035 10 16 0.00 0.00
10:53 am 10:53 Sunny 18 -7.8 7 -13.9 62 62 SW 10 17 30.55 1035 10 16 0.00 0.00
11:53 am 11:53 Sunny 19 -7.2 9 -12.8 65 65 WSW 12 19 30.55 1035 10 16 0.00 0.00
12:53 pm 12:53 Sunny 21 -6.1 8 -13.3 57 57 SW 10 17 30.51 1033 10 16 0.00 0.00
1:53 pm 13:53 Sunny 22 -5.6 10 -12.2 60 60 SW 12 19 30.50 1033 10 16 0.00 0.00
2:53 pm 14:53 Sunny 22 -5.6 10 -12.2 60 60 SW 10 17 30.50 1033 10 16 0.00 0.00
3:53 pm 15:53 Sunny 19 -7.2 9 -12.8 65 65 WSW 9 15 30.49 1033 10 16 0.00 0.00
4:53 pm 16:53 Clear 14 -10 5 -15 67 67 SW 12 19 30.50 1033 10 16 0.00 0.00
5:53 pm 17:53 Clear 13 -10.6 5 -15 70 70 SW 12 19 30.51 1033 10 16 0.00 0.00
6:53 pm 18:53 Clear 16 -8.9 6 -14.4 65 65 SW 15 24 30.50 1033 10 16 0.00 0.00
7:53 pm 19:53 Clear 16 -8.9 6 -14.4 65 65 SW 17 28 30.50 1033 10 16 0.00 0.00
8:53 pm 20:53 Clear 11 -11.7 4 -15.6 73 73 WSW 9 15 30.51 1033 10 16 0.00 0.00
9:53 pm 21:53 Clear 14 -10 5 -15 67 67 SW 13 20 30.50 1033 10 16 0.00 0.00
10:53 pm 22:53 Clear 7 -13.9 1 -17.2 76 76 SW 9 15 30.51 1033 10 16 0.00 0.00
11:53 pm 23:53 Clear 13 -10.6 4 -15.6 67 67 WSW 13 20 30.48 1032 10 16 0.00 0.00

Powered by AerisWeather